Flag for Canada Weather past 2 weeks in Haldimand, Ontario, Canada

Now
48 °F

Cloudy.


Feels Like: 46 °F
Forecast: 45 / 56 °F
Wind: 6 mph from Southwest

Location: Hamilton Airport

Current Time: Oct 20, 2014 at 9:44:18 AM

Latest Report: Oct 20, 2014 at 9:00 AM


Visibility: 15 mi

Pressure: 29.89 "Hg

Humidity: 87%

Dew point: 45 °F

Location of HaldimandLocation

Historic Weather in Haldimand — Graph

°F

Haldimand temperature yesterday

Maximum temperature yesterday: 48 °F (at 4:00 PM)
Minimum temperature yesterday: 37 °F (at 2:00 AM)
Average temperature yesterday: 41 °F

Past Weeks' High & Low Weather Summary

 TemperatureHumidityPressure
High72 °F (Oct 14, 11:00 AM)100% (Oct 7, 7:00 PM)30.29 "Hg (Oct 7, 7:00 PM)
Low32 °F (Oct 11, 7:00 AM)39% (Oct 11, 4:00 PM)29.51 "Hg (Oct 17, 6:00 PM)
Average51 °F79%29.89 "Hg
* Reported Oct 5 8:00 AM — Oct 20 8:00 AM, Haldimand, Weather by CustomWeather, © 2014

Note: Actual official high and low records may vary slightly from our data, if they occured in-between our weather recording intervals... More about our weather records

Advertising

Haldimand weather history for previous 24 hours

 ConditionsComfort  
Time TempWeatherWind HumidityBarometerVisibility
8:00 AM
Oct 20
45 °FOvercast.7 mph81%29.90 "Hg15 mi
7:00 AM45 °FMostly cloudy.5 mph76%29.91 "Hg15 mi
6:00 AM45 °FSprinkles. Overcast.7 mph76%29.92 "Hg15 mi
5:00 AM43 °FPartly cloudy.7 mph76%29.93 "Hg15 mi
4:00 AM43 °FMostly cloudy.5 mph81%29.95 "Hg15 mi
3:00 AM41 °FMostly cloudy.6 mph87%29.98 "Hg15 mi
2:00 AM41 °FOvercast.5 mph87%29.99 "Hg15 mi
1:00 AM41 °FOvercast.6 mph87%30.00 "Hg15 mi
11:00 PM
Oct 19
39 °FPartly cloudy.7 mph87%30.02 "Hg15 mi
10:00 PM41 °FPassing clouds.7 mph81%30.03 "Hg15 mi
9:00 PM41 °FPartly cloudy.7 mph76%30.04 "Hg15 mi
8:00 PM41 °FPartly cloudy.8 mph76%30.06 "Hg15 mi
7:00 PM43 °FPartly sunny.6 mph66%30.06 "Hg15 mi
6:00 PM46 °FPartly sunny.9 mph57%30.07 "Hg15 mi
5:00 PM48 °FBroken clouds.14 mph50%30.08 "Hg15 mi
4:00 PM48 °FBroken clouds.12 mph50%30.09 "Hg15 mi
3:00 PM46 °FBroken clouds.9 mph53%30.10 "Hg15 mi
2:00 PM45 °FBroken clouds.10 mph53%30.11 "Hg15 mi
1:00 PM43 °FBroken clouds.8 mph57%30.14 "Hg15 mi
12:00 PM43 °FBroken clouds.8 mph57%30.14 "Hg15 mi
11:00 AM43 °FPartly sunny.9 mph57%30.15 "Hg15 mi
10:00 AM41 °FPartly sunny.13 mph57%30.15 "Hg15 mi
9:00 AM39 °FPartly sunny.8 mph65%30.15 "Hg15 mi
Weather by CustomWeather, © 2014

See weather overviewHow to use our weather pages